User: anonymous   Login
Location: Bowman Observatory
(41.0326°N, 73.6210°W)
Time: 09:19:20
(UTC-05:00)
Language:

Cosmos 2298 Rocket - Orbit

View from above orbital plane
View from above orbital plane
View from above satellite
View from above satellite

Ground track
Ground track

The orbit data is extracted from the following two-line orbital elements,

1 23432U 94083B   16341.44126991  .00000029  00000-0  19911-4 0  9995
2 23432  74.0329 290.4288 0005639 198.4907 300.2253 14.33460831148680
Epoch (UTC): 06 December 2016 10:35:25
Eccentricity: 0.0005639
inclination: 74.0329°
perigee height: 776 km
apogee height: 784 km
right ascension of ascending node: 290.4288°
argument of perigee: 198.4907°
revolutions per day: 14.33460831
mean anomaly at epoch: 300.2253°
orbit number at epoch: 14868

The dashed part of the orbit path shows where the satellite is in the earth's shadow,  

DLR